M I D A S
Marine Information and Data Acquisition System
Tripno 1366 of the Zeeleeuw from 2007-11-27 07:43:13 to 2007-11-27 16:04:24
Back to CruiseResearch ActivitiesStationsMapUnderway DataData graphs

EquipmentUnitsComment
TimeDGPSUTC
LatitudeDGPSDM.mWGS84
LongitudeDGPSDM.mWGS84
TemperatureSBE03/SBE38deg celciusITS90
ConductivitySBE21S/mITS90
SalinitySBE21 Practical Salinity Units
ChlorophylAChelsea fluorimeterg/lCalibrated in Aceton
Missing or incorrect values are displayed as -999
Sea surface data collected by the RV Zeeleeuw from 2007-11-27 06:57:14 to 2007-11-27 16:15:21
Time Latitude Longitude Temperature Conductivity Salinity ChlorophylA
2007-11-27 06:58:19 51°13.596 2°56.093 -999 -999 -999 -999
2007-11-27 06:59:18 51°13.596 2°56.093 -999 -999 -999 -999
2007-11-27 07:00:19 51°13.597 2°56.094 -999 -999 -999 -999
2007-11-27 07:01:19 51°13.598 2°56.094 -999 -999 -999 -999
2007-11-27 07:02:19 51°13.598 2°56.093 -999 -999 -999 -999
2007-11-27 07:03:19 51°13.598 2°56.094 -999 -999 -999 -999
2007-11-27 07:04:19 51°13.598 2°56.095 -999 -999 -999 -999
2007-11-27 07:05:18 51°13.598 2°56.094 -999 -999 -999 -999
2007-11-27 07:06:19 51°13.598 2°56.095 -999 -999 -999 -999
2007-11-27 07:07:19 51°13.599 2°56.094 -999 -999 -999 -999
2007-11-27 07:08:19 51°13.598 2°56.092 -999 -999 -999 -999
2007-11-27 07:09:19 51°13.598 2°56.095 -999 -999 -999 -999
2007-11-27 07:10:19 51°13.598 2°56.096 -999 -999 -999 -999
2007-11-27 07:11:19 51°13.598 2°56.096 -999 -999 -999 -999
2007-11-27 07:12:19 51°13.598 2°56.096 -999 -999 -999 -999
2007-11-27 07:13:19 51°13.6 2°56.094 -999 -999 -999 -999
2007-11-27 07:14:19 51°13.599 2°56.094 -999 -999 -999 -999
2007-11-27 07:15:19 51°13.598 2°56.093 -999 -999 -999 -999
2007-11-27 07:16:19 51°13.598 2°56.094 -999 -999 -999 -999
2007-11-27 07:17:19 51°13.598 2°56.094 -999 -999 -999 -999
2007-11-27 07:18:19 51°13.598 2°56.094 -999 -999 -999 -999
2007-11-27 07:19:19 51°13.598 2°56.095 -999 -999 -999 -999
2007-11-27 07:20:19 51°13.597 2°56.095 -999 -999 -999 -999
2007-11-27 07:21:19 51°13.598 2°56.095 -999 -999 -999 -999
2007-11-27 07:22:19 51°13.598 2°56.095 -999 -999 -999 -999
2007-11-27 07:23:19 51°13.597 2°56.094 -999 -999 -999 -999
2007-11-27 07:24:19 51°13.599 2°56.096 -999 -999 -999 -999
2007-11-27 07:25:19 51°13.599 2°56.097 -999 -999 -999 -999
2007-11-27 07:26:19 51°13.6 2°56.097 -999 -999 -999 -999
2007-11-27 07:27:19 51°13.6 2°56.096 -999 -999 -999 -999
2007-11-27 07:28:19 51°13.6 2°56.095 -999 -999 -999 -999
2007-11-27 07:29:19 51°13.6 2°56.094 -999 -999 -999 -999
2007-11-27 07:30:19 51°13.599 2°56.094 -999 -999 -999 -999
2007-11-27 07:31:19 51°13.599 2°56.094 -999 -999 -999 -999
2007-11-27 07:32:19 51°13.599 2°56.095 -999 -999 -999 -999
2007-11-27 07:33:19 51°13.599 2°56.095 -999 -999 -999 -999
2007-11-27 07:34:19 51°13.601 2°56.096 -999 -999 -999 -999
2007-11-27 07:35:19 51°13.599 2°56.095 -999 -999 -999 -999
2007-11-27 07:36:19 51°13.599 2°56.094 -999 -999 -999 -999
2007-11-27 07:37:19 51°13.599 2°56.094 -999 -999 -999 -999
2007-11-27 07:38:19 51°13.599 2°56.094 -999 -999 -999 -999
2007-11-27 07:39:19 51°13.599 2°56.094 -999 -999 -999 -999
2007-11-27 07:40:19 51°13.599 2°56.094 -999 -999 -999 -999
2007-11-27 07:41:19 51°13.599 2°56.094 -999 -999 -999 -999
2007-11-27 07:42:19 51°13.599 2°56.094 -999 -999 -999 -999
2007-11-27 07:43:19 51°13.599 2°56.094 -999 -999 -999 -999
2007-11-27 07:44:19 51°13.599 2°56.094 -999 -999 -999 -999
2007-11-27 07:45:19 51°13.599 2°56.095 -999 -999 -999 -999
2007-11-27 07:46:19 51°13.598 2°56.095 -999 -999 -999 -999
2007-11-27 07:47:19 51°13.603 2°56.073 -999 -999 -999 -999
2007-11-27 07:48:19 51°13.63 2°55.973 -999 -999 -999 -999
2007-11-27 07:49:19 51°13.67 2°55.851 -999 -999 -999 -999
2007-11-27 07:50:19 51°13.692 2°55.751 -999 -999 -999 -999
2007-11-27 07:51:19 51°13.696 2°55.755 -999 -999 -999 -999
2007-11-27 07:52:19 51°13.687 2°55.725 -999 -999 -999 -999
2007-11-27 07:53:19 51°13.729 2°55.714 -999 -999 -999 -999
2007-11-27 07:54:17 51°13.839 2°55.633 -999 -999 -999 -999
2007-11-27 07:55:17 51°13.976 2°55.532 -999 -999 -999 -999
2007-11-27 07:56:16 51°14.115 2°55.432 -999 -999 -999 -999
2007-11-27 07:57:15 51°14.241 2°55.29 -999 -999 -999 -999
2007-11-27 07:58:15 51°14.357 2°55.074 -999 -999 -999 -999
2007-11-27 07:59:15 51°14.431 2°54.775 -999 -999 -999 -999
2007-11-27 08:00:15 51°14.409 2°54.442 -999 -999 -999 -999
2007-11-27 08:01:15 51°14.323 2°54.13 -999 -999 -999 -999
2007-11-27 08:02:15 51°14.223 2°53.825 -999 -999 -999 -999
2007-11-27 08:03:15 51°14.12 2°53.513 -999 -999 -999 -999
2007-11-27 08:04:15 51°14.008 2°53.203 -999 -999 -999 -999
2007-11-27 08:05:15 51°13.906 2°52.891 -999 -999 -999 -999
2007-11-27 08:06:15 51°13.841 2°52.665 -999 -999 -999 -999
2007-11-27 08:07:15 51°13.772 2°52.555 -999 -999 -999 -999
2007-11-27 08:08:15 51°13.706 2°52.582 -999 -999 -999 -999
2007-11-27 08:09:15 51°13.714 2°52.657 -999 -999 -999 -999
2007-11-27 08:10:15 51°13.761 2°52.793 -999 -999 -999 -999
2007-11-27 08:11:15 51°13.825 2°52.982 -999 -999 -999 -999
2007-11-27 08:12:15 51°13.883 2°53.133 -999 -999 -999 -999
2007-11-27 08:13:15 51°13.907 2°53.234 -999 -999 -999 -999
2007-11-27 08:14:15 51°13.927 2°53.295 -999 -999 -999 -999
2007-11-27 08:15:15 51°13.959 2°53.3 -999 -999 -999 -999
2007-11-27 08:16:15 51°13.992 2°53.254 -999 -999 -999 -999
2007-11-27 08:17:15 51°14.008 2°53.206 -999 -999 -999 -999
2007-11-27 08:18:15 51°14.014 2°53.158 -999 -999 -999 -999
2007-11-27 08:19:15 51°14.02 2°53.101 -999 -999 -999 -999
2007-11-27 08:20:15 51°14.023 2°53.047 -999 -999 -999 -999
2007-11-27 08:21:15 51°14.007 2°53.019 -999 -999 -999 -999
2007-11-27 08:22:17 51°14.007 2°53.008 -999 -999 -999 -999
2007-11-27 08:23:15 51°14.01 2°53.005 -999 -999 -999 -999
2007-11-27 08:24:15 51°14.011 2°53.002 -999 -999 -999 -999
2007-11-27 08:25:15 51°14.012 2°53 -999 -999 -999 -999
2007-11-27 08:26:15 51°14.012 2°53.001 -999 -999 -999 -999
2007-11-27 08:27:15 51°14.012 2°53 -999 -999 -999 -999
2007-11-27 08:28:15 51°14.011 2°53.001 -999 -999 -999 -999
2007-11-27 08:29:15 51°14.011 2°53.001 -999 -999 -999 -999
2007-11-27 08:30:15 51°14.011 2°53.002 -999 -999 -999 -999
2007-11-27 08:31:15 51°14.011 2°53.002 -999 -999 -999 -999
2007-11-27 08:32:15 51°14.011 2°53.002 -999 -999 -999 -999
2007-11-27 08:33:15 51°14.011 2°53.002 -999 -999 -999 -999
2007-11-27 08:34:15 51°14.012 2°53.001 -999 -999 -999 -999
2007-11-27 08:35:15 51°14.014 2°53 -999 -999 -999 -999
2007-11-27 08:36:15 51°14.017 2°52.999 -999 -999 -999 -999
2007-11-27 08:37:15 51°14.018 2°52.999 -999 -999 -999 -999
2007-11-27 08:38:15 51°14.018 2°52.998 -999 -999 -999 -999
2007-11-27 08:39:15 51°14.016 2°52.999 -999 -999 -999 -999
2007-11-27 08:40:15 51°14.015 2°52.999 -999 -999 -999 -999
2007-11-27 08:41:15 51°14.015 2°53 -999 -999 -999 -999
2007-11-27 08:42:15 51°14.015 2°52.999 -999 -999 -999 -999
2007-11-27 08:43:15 51°14.015 2°53 -999 -999 -999 -999
2007-11-27 08:44:15 51°14.015 2°53 -999 -999 -999 -999
2007-11-27 08:45:15 51°14.016 2°53 -999 -999 -999 -999
2007-11-27 08:46:15 51°14.016 2°53 -999 -999 -999 -999
2007-11-27 08:47:15 51°14.015 2°53 -999 -999 -999 -999
2007-11-27 08:48:15 51°14.015 2°53 -999 -999 -999 -999
2007-11-27 08:49:15 51°14.016 2°52.999 -999 -999 -999 -999
2007-11-27 08:50:15 51°14.016 2°52.999 -999 -999 -999 -999
2007-11-27 08:51:15 51°14.016 2°52.999 -999 -999 -999 -999
2007-11-27 08:52:15 51°14.016 2°52.999 -999 -999 -999 -999
2007-11-27 08:53:15 51°14.015 2°53 -999 -999 -999 -999
2007-11-27 08:54:15 51°14.015 2°53 -999 -999 -999 -999
2007-11-27 08:55:15 51°14.015 2°53 -999 -999 -999 -999
2007-11-27 08:56:15 51°14.015 2°53 -999 -999 -999 -999
2007-11-27 08:57:15 51°14.016 2°52.999 -999 -999 -999 -999
2007-11-27 08:58:15 51°14.016 2°53 -999 -999 -999 -999
2007-11-27 08:59:15 51°14.015 2°53 -999 -999 -999 -999
2007-11-27 09:00:15 51°14.015 2°53 -999 -999 -999 -999
2007-11-27 09:01:15 51°14.015 2°53 -999 -999 -999 -999
2007-11-27 09:02:15 51°14.015 2°53 -999 -999 -999 -999
2007-11-27 09:03:15 51°14.016 2°53 -999 -999 -999 -999
2007-11-27 09:04:15 51°14.015 2°53 -999 -999 -999 -999
2007-11-27 09:05:15 51°14.015 2°53 -999 -999 -999 -999
2007-11-27 09:06:15 51°14.016 2°52.999 -999 -999 -999 -999
2007-11-27 09:07:15 51°14.017 2°53 -999 -999 -999 -999
2007-11-27 09:08:15 51°14.017 2°52.999 -999 -999 -999 -999
2007-11-27 09:09:15 51°14.016 2°52.999 -999 -999 -999 -999
2007-11-27 09:10:15 51°14.017 2°52.999 -999 -999 -999 -999
2007-11-27 09:11:15 51°14.017 2°52.999 -999 -999 -999 -999
2007-11-27 09:12:15 51°14.017 2°52.999 -999 -999 -999 -999
2007-11-27 09:13:15 51°14.017 2°52.999 -999 -999 -999 -999
2007-11-27 09:14:15 51°14.017 2°52.999 -999 -999 -999 -999
2007-11-27 09:15:15 51°14.016 2°52.999 -999 -999 -999 -999
2007-11-27 09:16:15 51°14.016 2°53 -999 -999 -999 -999
2007-11-27 09:17:15 51°14.015 2°52.999 -999 -999 -999 -999
2007-11-27 09:18:15 51°14.016 2°53 -999 -999 -999 -999
2007-11-27 09:19:15 51°14.016 2°53 -999 -999 -999 -999
2007-11-27 09:20:15 51°14.017 2°53 -999 -999 -999 -999
2007-11-27 09:21:15 51°14.017 2°52.999 -999 -999 -999 -999
2007-11-27 09:22:15 51°14.018 2°53 -999 -999 -999 -999
2007-11-27 09:23:15 51°14.019 2°53 -999 -999 -999 -999
2007-11-27 09:24:15 51°14.019 2°52.999 -999 -999 -999 -999
2007-11-27 09:25:15 51°14.019 2°52.999 -999 -999 -999 -999
2007-11-27 09:26:15 51°14.018 2°52.999 -999 -999 -999 -999
2007-11-27 09:27:15 51°14.017 2°52.999 -999 -999 -999 -999
2007-11-27 09:28:15 51°14.017 2°53 -999 -999 -999 -999
2007-11-27 09:29:15 51°14.016 2°53 -999 -999 -999 -999
2007-11-27 09:30:15 51°14.016 2°53 -999 -999 -999 -999
2007-11-27 09:31:15 51°14.017 2°53 -999 -999 -999 -999
2007-11-27 09:32:15 51°14.017 2°53 -999 -999 -999 -999
2007-11-27 09:33:15 51°14.016 2°53 -999 -999 -999 -999
2007-11-27 09:34:15 51°14.016 2°53 -999 -999 -999 -999
2007-11-27 09:35:15 51°14.016 2°53.001 -999 -999 -999 -999
2007-11-27 09:36:15 51°14.016 2°53 -999 -999 -999 -999
2007-11-27 09:37:15 51°14.016 2°53.001 -999 -999 -999 -999
2007-11-27 09:38:15 51°14.016 2°53.001 -999 -999 -999 -999
2007-11-27 09:39:15 51°14.015 2°53.001 -999 -999 -999 -999
2007-11-27 09:40:15 51°14.014 2°53.001 -999 -999 -999 -999
2007-11-27 09:41:15 51°14.014 2°53.001 -999 -999 -999 -999
2007-11-27 09:42:15 51°14.015 2°53.001 -999 -999 -999 -999
2007-11-27 09:43:15 51°14.016 2°53.001 -999 -999 -999 -999
2007-11-27 09:44:15 51°14.017 2°53 -999 -999 -999 -999
2007-11-27 09:45:15 51°14.017 2°53 -999 -999 -999 -999
2007-11-27 09:46:15 51°14.017 2°53 -999 -999 -999 -999
2007-11-27 09:47:15 51°14.017 2°53 -999 -999 -999 -999
2007-11-27 09:48:15 51°14.018 2°53 -999 -999 -999 -999
2007-11-27 09:49:15 51°14.018 2°52.999 -999 -999 -999 -999
2007-11-27 09:50:15 51°14.018 2°52.999 -999 -999 -999 -999
2007-11-27 09:51:15 51°14.018 2°53 -999 -999 -999 -999
2007-11-27 09:52:15 51°14.018 2°53 -999 -999 -999 -999
2007-11-27 09:53:15 51°14.017 2°53 -999 -999 -999 -999
2007-11-27 09:54:15 51°14.016 2°53 -999 -999 -999 -999
2007-11-27 09:55:15 51°14.016 2°53 -999 -999 -999 -999
2007-11-27 09:56:15 51°14.015 2°53 -999 -999 -999 -999
2007-11-27 09:57:15 51°14.016 2°53 -999 -999 -999 -999
2007-11-27 09:58:15 51°14.016 2°53.001 -999 -999 -999 -999
2007-11-27 09:59:15 51°14.017 2°53 -999 -999 -999 -999
2007-11-27 10:00:15 51°14.018 2°53 -999 -999 -999 -999
2007-11-27 10:01:15 51°14.017 2°52.999 -999 -999 -999 -999
2007-11-27 10:02:16 51°14.017 2°53 -999 -999 -999 -999
2007-11-27 10:03:15 51°14.018 2°53 -999 -999 -999 -999
2007-11-27 10:04:15 51°14.018 2°53 -999 -999 -999 -999
2007-11-27 10:05:15 51°14.018 2°53 -999 -999 -999 -999
2007-11-27 10:06:16 51°14.018 2°53 -999 -999 -999 -999
2007-11-27 10:07:15 51°14.017 2°53 -999 -999 -999 -999
2007-11-27 10:08:15 51°14.017 2°53 -999 -999 -999 -999
2007-11-27 10:09:15 51°14.017 2°53 -999 -999 -999 -999
2007-11-27 10:10:15 51°14.018 2°53 -999 -999 -999 -999
2007-11-27 10:11:15 51°14.018 2°53 -999 -999 -999 -999
2007-11-27 10:12:15 51°14.018 2°53 -999 -999 -999 -999
2007-11-27 10:13:15 51°14.018 2°53 -999 -999 -999 -999
2007-11-27 10:14:15 51°14.016 2°52.999 -999 -999 -999 -999
2007-11-27 10:15:15 51°14.015 2°53.001 -999 -999 -999 -999
2007-11-27 10:16:15 51°14.015 2°53.001 -999 -999 -999 -999
2007-11-27 10:17:15 51°14.016 2°53.001 -999 -999 -999 -999
2007-11-27 10:18:15 51°14.018 2°53 -999 -999 -999 -999
2007-11-27 10:19:15 51°14.018 2°53 -999 -999 -999 -999
2007-11-27 10:20:15 51°14.018 2°53 -999 -999 -999 -999
2007-11-27 10:21:15 51°14.02 2°53.007 -999 -999 -999 -999
2007-11-27 10:22:15 51°14.027 2°53.023 -999 -999 -999 -999
2007-11-27 10:23:15 51°14.033 2°53.035 -999 -999 -999 -999
2007-11-27 10:24:15 51°14.037 2°53.037 -999 -999 -999 -999
2007-11-27 10:25:15 51°14.038 2°53.033 -999 -999 -999 -999
2007-11-27 10:26:15 51°14.037 2°53.025 -999 -999 -999 -999
2007-11-27 10:27:15 51°14.032 2°53.015 -999 -999 -999 -999
2007-11-27 10:28:15 51°14.027 2°53.002 -999 -999 -999 -999
2007-11-27 10:29:16 51°14.019 2°52.988 -999 -999 -999 -999
2007-11-27 10:30:15 51°14.011 2°52.975 -999 -999 -999 -999
2007-11-27 10:31:15 51°14.002 2°52.961 -999 -999 -999 -999
2007-11-27 10:32:15 51°13.992 2°52.947 -999 -999 -999 -999
2007-11-27 10:33:15 51°13.988 2°52.941 -999 -999 -999 -999
2007-11-27 10:34:15 51°13.978 2°53.002 -999 -999 -999 -999
2007-11-27 10:35:15 51°13.899 2°52.99 -999 -999 -999 -999
2007-11-27 10:36:16 51°13.813 2°52.799 -999 -999 -999 -999
2007-11-27 10:37:15 51°13.708 2°52.545 -999 -999 -999 -999
2007-11-27 10:38:16 51°13.608 2°52.263 -999 -999 -999 -999
2007-11-27 10:39:15 51°13.524 2°52.029 -999 -999 -999 -999
2007-11-27 10:40:16 51°13.487 2°51.945 -999 -999 -999 -999
2007-11-27 10:41:15 51°13.471 2°51.885 -999 -999 -999 -999
2007-11-27 10:42:15 51°13.457 2°51.834 -999 -999 -999 -999
2007-11-27 10:43:15 51°13.446 2°51.791 -999 -999 -999 -999
2007-11-27 10:44:15 51°13.435 2°51.753 -999 -999 -999 -999
2007-11-27 10:45:15 51°13.423 2°51.72 -999 -999 -999 -999
2007-11-27 10:46:15 51°13.411 2°51.69 -999 -999 -999 -999
2007-11-27 10:47:16 51°13.404 2°51.633 -999 -999 -999 -999
2007-11-27 10:48:15 51°13.388 2°51.514 -999 -999 -999 -999
2007-11-27 10:49:16 51°13.346 2°51.412 -999 -999 -999 -999
2007-11-27 10:50:16 51°13.306 2°51.332 -999 -999 -999 -999
2007-11-27 10:51:15 51°13.288 2°51.296 -999 -999 -999 -999
2007-11-27 10:52:17 51°13.277 2°51.283 -999 -999 -999 -999
2007-11-27 10:53:15 51°13.266 2°51.271 -999 -999 -999 -999
2007-11-27 10:54:15 51°13.254 2°51.257 -999 -999 -999 -999
2007-11-27 10:55:15 51°13.242 2°51.244 -999 -999 -999 -999
2007-11-27 10:56:16 51°13.206 2°51.153 -999 -999 -999 -999
2007-11-27 10:57:15 51°13.113 2°50.875 -999 -999 -999 -999
2007-11-27 10:58:15 51°13.017 2°50.551 -999 -999 -999 -999
2007-11-27 10:59:15 51°12.92 2°50.227 -999 -999 -999 -999
2007-11-27 11:00:15 51°12.818 2°49.906 -999 -999 -999 -999
2007-11-27 11:01:16 51°12.716 2°49.578 -999 -999 -999 -999
2007-11-27 11:02:15 51°12.619 2°49.261 -999 -999 -999 -999
2007-11-27 11:03:16 51°12.517 2°48.935 -999 -999 -999 -999
2007-11-27 11:04:15 51°12.425 2°48.615 -999 -999 -999 -999
2007-11-27 11:05:15 51°12.325 2°48.297 -999 -999 -999 -999
2007-11-27 11:06:16 51°12.228 2°47.968 -999 -999 -999 -999
2007-11-27 11:07:16 51°12.13 2°47.648 -999 -999 -999 -999
2007-11-27 11:08:16 51°12.036 2°47.324 -999 -999 -999 -999
2007-11-27 11:09:16 51°11.958 2°46.993 -999 -999 -999 -999
2007-11-27 11:10:16 51°11.896 2°46.652 -999 -999 -999 -999
2007-11-27 11:11:16 51°11.808 2°46.325 -999 -999 -999 -999
2007-11-27 11:12:16 51°11.725 2°45.995 -999 -999 -999 -999
2007-11-27 11:13:16 51°11.64 2°45.667 -999 -999 -999 -999
2007-11-27 11:14:16 51°11.556 2°45.338 -999 -999 -999 -999
2007-11-27 11:15:16 51°11.48 2°45.007 -999 -999 -999 -999
2007-11-27 11:16:16 51°11.417 2°44.67 -999 -999 -999 -999
2007-11-27 11:17:16 51°11.371 2°44.326 -999 -999 -999 -999
2007-11-27 11:18:16 51°11.323 2°43.985 -999 -999 -999 -999
2007-11-27 11:19:16 51°11.274 2°43.641 -999 -999 -999 -999
2007-11-27 11:20:16 51°11.234 2°43.293 -999 -999 -999 -999
2007-11-27 11:21:16 51°11.193 2°42.947 -999 -999 -999 -999
2007-11-27 11:22:16 51°11.157 2°42.681 -999 -999 -999 -999
2007-11-27 11:23:16 51°11.137 2°42.519 -999 -999 -999 -999
2007-11-27 11:24:16 51°11.126 2°42.378 -999 -999 -999 -999
2007-11-27 11:25:16 51°11.109 2°42.244 -999 -999 -999 -999
2007-11-27 11:26:16 51°11.094 2°42.121 -999 -999 -999 -999
2007-11-27 11:27:16 51°11.092 2°42.058 -999 -999 -999 -999
2007-11-27 11:28:16 51°11.086 2°42.052 -999 -999 -999 -999
2007-11-27 11:29:19 51°11.079 2°42.047 -999 -999 -999 -999
2007-11-27 11:30:17 51°11.074 2°42.044 -999 -999 -999 -999
2007-11-27 11:31:16 51°11.068 2°42.03 -999 -999 -999 -999
2007-11-27 11:32:16 51°11.012 2°41.91 -999 -999 -999 -999
2007-11-27 11:33:16 51°10.897 2°41.67 -999 -999 -999 -999
2007-11-27 11:34:16 51°10.774 2°41.419 -999 -999 -999 -999
2007-11-27 11:35:16 51°10.657 2°41.161 -999 -999 -999 -999
2007-11-27 11:36:16 51°10.529 2°40.916 -999 -999 -999 -999
2007-11-27 11:37:16 51°10.402 2°40.672 -999 -999 -999 -999
2007-11-27 11:38:16 51°10.286 2°40.444 -999 -999 -999 -999
2007-11-27 11:39:16 51°10.195 2°40.279 -999 -999 -999 -999
2007-11-27 11:40:16 51°10.135 2°40.186 -999 -999 -999 -999
2007-11-27 11:41:16 51°10.098 2°40.129 -999 -999 -999 -999
2007-11-27 11:42:16 51°10.084 2°40.083 -999 -999 -999 -999
2007-11-27 11:43:16 51°10.08 2°40.071 -999 -999 -999 -999
2007-11-27 11:44:16 51°10.079 2°40.066 -999 -999 -999 -999
2007-11-27 11:45:16 51°10.083 2°40.046 -999 -999 -999 -999
2007-11-27 11:46:16 51°10.083 2°39.857 -999 -999 -999 -999
2007-11-27 11:47:16 51°10.085 2°39.55 -999 -999 -999 -999
2007-11-27 11:48:16 51°10.092 2°39.235 -999 -999 -999 -999
2007-11-27 11:49:16 51°10.099 2°38.918 -999 -999 -999 -999
2007-11-27 11:50:16 51°10.12 2°38.598 -999 -999 -999 -999
2007-11-27 11:51:16 51°10.148 2°38.278 -999 -999 -999 -999
2007-11-27 11:52:16 51°10.174 2°37.961 -999 -999 -999 -999
2007-11-27 11:53:16 51°10.204 2°37.645 -999 -999 -999 -999
2007-11-27 11:54:16 51°10.257 2°37.34 -999 -999 -999 -999
2007-11-27 11:55:16 51°10.361 2°37.073 -999 -999 -999 -999
2007-11-27 11:56:16 51°10.502 2°36.868 -999 -999 -999 -999
2007-11-27 11:57:16 51°10.676 2°36.742 -999 -999 -999 -999
2007-11-27 11:58:16 51°10.877 2°36.76 -999 -999 -999 -999
2007-11-27 11:59:16 51°11.081 2°36.784 -999 -999 -999 -999
2007-11-27 12:00:16 51°11.286 2°36.803 -999 -999 -999 -999
2007-11-27 12:01:16 51°11.491 2°36.817 -999 -999 -999 -999
2007-11-27 12:02:16 51°11.696 2°36.833 -999 -999 -999 -999
2007-11-27 12:03:16 51°11.9 2°36.845 -999 -999 -999 -999
2007-11-27 12:04:16 51°12.102 2°36.858 -999 -999 -999 -999
2007-11-27 12:05:16 51°12.305 2°36.873 -999 -999 -999 -999
2007-11-27 12:06:16 51°12.509 2°36.89 -999 -999 -999 -999
2007-11-27 12:07:16 51°12.708 2°36.908 -999 -999 -999 -999
2007-11-27 12:08:16 51°12.906 2°36.924 -999 -999 -999 -999
2007-11-27 12:09:16 51°13.104 2°36.932 -999 -999 -999 -999
2007-11-27 12:10:16 51°13.301 2°36.934 -999 -999 -999 -999
2007-11-27 12:11:16 51°13.497 2°36.943 -999 -999 -999 -999
2007-11-27 12:12:16 51°13.7 2°36.954 -999 -999 -999 -999
2007-11-27 12:13:16 51°13.904 2°36.964 -999 -999 -999 -999
2007-11-27 12:14:16 51°14.11 2°36.957 -999 -999 -999 -999
2007-11-27 12:15:16 51°14.311 2°36.944 -999 -999 -999 -999
2007-11-27 12:16:16 51°14.512 2°36.933 -999 -999 -999 -999
2007-11-27 12:17:16 51°14.714 2°36.923 -999 -999 -999 -999
2007-11-27 12:18:16 51°14.915 2°36.912 -999 -999 -999 -999
2007-11-27 12:19:16 51°15.119 2°36.905 -999 -999 -999 -999
2007-11-27 12:20:16 51°15.323 2°36.894 -999 -999 -999 -999
2007-11-27 12:21:16 51°15.525 2°36.886 -999 -999 -999 -999
2007-11-27 12:22:16 51°15.727 2°36.872 -999 -999 -999 -999
2007-11-27 12:23:16 51°15.931 2°36.856 -999 -999 -999 -999
2007-11-27 12:24:16 51°16.138 2°36.834 -999 -999 -999 -999
2007-11-27 12:25:16 51°16.344 2°36.81 -999 -999 -999 -999
2007-11-27 12:26:16 51°16.495 2°36.795 -999 -999 -999 -999
2007-11-27 12:27:16 51°16.571 2°36.793 -999 -999 -999 -999
2007-11-27 12:28:16 51°16.614 2°36.798 -999 -999 -999 -999
2007-11-27 12:29:16 51°16.627 2°36.819 -999 -999 -999 -999
2007-11-27 12:30:16 51°16.637 2°36.842 -999 -999 -999 -999
2007-11-27 12:31:16 51°16.645 2°36.868 -999 -999 -999 -999
2007-11-27 12:32:16 51°16.658 2°36.894 -999 -999 -999 -999
2007-11-27 12:33:16 51°16.712 2°36.962 -999 -999 -999 -999
2007-11-27 12:34:16 51°16.791 2°37.214 -999 -999 -999 -999
2007-11-27 12:35:15 51°16.842 2°37.555 -999 -999 -999 -999
2007-11-27 12:36:16 51°16.891 2°37.913 -999 -999 -999 -999
2007-11-27 12:37:16 51°16.944 2°38.267 -999 -999 -999 -999
2007-11-27 12:38:16 51°16.992 2°38.624 -999 -999 -999 -999
2007-11-27 12:39:16 51°17.032 2°38.991 -999 -999 -999 -999
2007-11-27 12:40:16 51°17.074 2°39.36 -999 -999 -999 -999
2007-11-27 12:41:16 51°17.119 2°39.727 -999 -999 -999 -999
2007-11-27 12:42:16 51°17.166 2°40.088 -999 -999 -999 -999
2007-11-27 12:43:16 51°17.212 2°40.452 -999 -999 -999 -999
2007-11-27 12:44:16 51°17.261 2°40.812 -999 -999 -999 -999
2007-11-27 12:45:16 51°17.312 2°41.166 -999 -999 -999 -999
2007-11-27 12:46:16 51°17.364 2°41.517 -999 -999 -999 -999
2007-11-27 12:47:16 51°17.415 2°41.871 -999 -999 -999 -999
2007-11-27 12:48:16 51°17.468 2°42.228 -999 -999 -999 -999
2007-11-27 12:49:16 51°17.523 2°42.585 -999 -999 -999 -999
2007-11-27 12:50:16 51°17.575 2°42.948 -999 -999 -999 -999
2007-11-27 12:51:16 51°17.622 2°43.317 -999 -999 -999 -999
2007-11-27 12:52:16 51°17.668 2°43.685 -999 -999 -999 -999
2007-11-27 12:53:16 51°17.715 2°44.057 -999 -999 -999 -999
2007-11-27 12:54:16 51°17.763 2°44.429 -999 -999 -999 -999
2007-11-27 12:55:16 51°17.809 2°44.799 -999 -999 -999 -999
2007-11-27 12:56:15 51°17.852 2°45.16 -999 -999 -999 -999
2007-11-27 12:57:16 51°17.893 2°45.529 -999 -999 -999 -999
2007-11-27 12:58:15 51°17.931 2°45.883 -999 -999 -999 -999
2007-11-27 12:59:16 51°17.968 2°46.249 -999 -999 -999 -999
2007-11-27 13:00:15 51°18.006 2°46.597 -999 -999 -999 -999
2007-11-27 13:01:16 51°18.043 2°46.961 -999 -999 -999 -999
2007-11-27 13:02:16 51°18.084 2°47.325 -999 -999 -999 -999
2007-11-27 13:03:16 51°18.129 2°47.69 -999 -999 -999 -999
2007-11-27 13:04:16 51°18.174 2°48.055 -999 -999 -999 -999
2007-11-27 13:05:16 51°18.217 2°48.422 -999 -999 -999 -999
2007-11-27 13:06:16 51°18.264 2°48.79 -999 -999 -999 -999
2007-11-27 13:07:16 51°18.31 2°49.158 -999 -999 -999 -999
2007-11-27 13:08:16 51°18.355 2°49.526 -999 -999 -999 -999
2007-11-27 13:09:16 51°18.402 2°49.892 -999 -999 -999 -999
2007-11-27 13:10:15 51°18.449 2°50.253 -999 -999 -999 -999
2007-11-27 13:11:16 51°18.491 2°50.579 -999 -999 -999 -999
2007-11-27 13:12:16 51°18.495 2°50.813 -999 -999 -999 -999
2007-11-27 13:13:16 51°18.509 2°50.968 -999 -999 -999 -999
2007-11-27 13:14:16 51°18.528 2°51.063 -999 -999 -999 -999
2007-11-27 13:15:16 51°18.544 2°51.103 -999 -999 -999 -999
2007-11-27 13:16:15 51°18.56 2°51.141 -999 -999 -999 -999
2007-11-27 13:17:14 51°18.574 2°51.181 -999 -999 -999 -999
2007-11-27 13:18:16 51°18.582 2°51.24 -999 -999 -999 -999
2007-11-27 13:19:14 51°18.615 2°51.4 -999 -999 -999 -999
2007-11-27 13:20:16 51°18.695 2°51.74 -999 -999 -999 -999
2007-11-27 13:21:14 51°18.773 2°52.078 -999 -999 -999 -999
2007-11-27 13:22:16 51°18.854 2°52.441 -999 -999 -999 -999
2007-11-27 13:23:14 51°18.919 2°52.785 -999 -999 -999 -999
2007-11-27 13:24:16 51°18.985 2°53.154 -999 -999 -999 -999
2007-11-27 13:25:15 51°19.051 2°53.504 -999 -999 -999 -999
2007-11-27 13:26:15 51°19.123 2°53.86 -999 -999 -999 -999
2007-11-27 13:27:16 51°19.193 2°54.225 -999 -999 -999 -999
2007-11-27 13:28:14 51°19.263 2°54.574 -999 -999 -999 -999
2007-11-27 13:29:16 51°19.339 2°54.946 -999 -999 -999 -999
2007-11-27 13:30:14 51°19.407 2°55.297 -999 -999 -999 -999
2007-11-27 13:31:16 51°19.483 2°55.67 -999 -999 -999 -999
2007-11-27 13:32:14 51°19.555 2°56.019 -999 -999 -999 -999
2007-11-27 13:33:16 51°19.633 2°56.394 -999 -999 -999 -999
2007-11-27 13:34:16 51°19.704 2°56.759 -999 -999 -999 -999
2007-11-27 13:35:16 51°19.779 2°57.125 -999 -999 -999 -999
2007-11-27 13:36:16 51°19.851 2°57.492 -999 -999 -999 -999
2007-11-27 13:37:14 51°19.923 2°57.848 -999 -999 -999 -999
2007-11-27 13:38:16 51°20 2°58.231 -999 -999 -999 -999
2007-11-27 13:39:14 51°20.073 2°58.588 -999 -999 -999 -999
2007-11-27 13:40:16 51°20.15 2°58.969 -999 -999 -999 -999
2007-11-27 13:41:14 51°20.223 2°59.325 -999 -999 -999 -999
2007-11-27 13:42:16 51°20.301 2°59.709 -999 -999 -999 -999
2007-11-27 13:43:16 51°20.377 3°0.081 -999 -999 -999 -999
2007-11-27 13:44:16 51°20.452 3°0.456 -999 -999 -999 -999
2007-11-27 13:45:16 51°20.531 3°0.83 -999 -999 -999 -999
2007-11-27 13:46:15 51°20.602 3°1.2 -999 -999 -999 -999
2007-11-27 13:47:16 51°20.678 3°1.581 -999 -999 -999 -999
2007-11-27 13:48:16 51°20.753 3°1.96 -999 -999 -999 -999
2007-11-27 13:49:16 51°20.832 3°2.34 -999 -999 -999 -999
2007-11-27 13:50:16 51°20.911 3°2.721 -999 -999 -999 -999
2007-11-27 13:51:15 51°20.99 3°3.099 -999 -999 -999 -999
2007-11-27 13:52:16 51°21.069 3°3.487 -999 -999 -999 -999
2007-11-27 13:53:16 51°21.146 3°3.869 -999 -999 -999 -999
2007-11-27 13:54:16 51°21.225 3°4.247 -999 -999 -999 -999
2007-11-27 13:55:16 51°21.303 3°4.622 -999 -999 -999 -999
2007-11-27 13:56:16 51°21.406 3°4.98 -999 -999 -999 -999
2007-11-27 13:57:14 51°21.498 3°5.334 -999 -999 -999 -999
2007-11-27 13:58:14 51°21.596 3°5.698 -999 -999 -999 -999
2007-11-27 13:59:16 51°21.691 3°6.081 -999 -999 -999 -999
2007-11-27 14:00:14 51°21.745 3°6.457 -999 -999 -999 -999
2007-11-27 14:01:16 51°21.811 3°6.855 -999 -999 -999 -999
2007-11-27 14:02:14 51°21.874 3°7.225 -999 -999 -999 -999
2007-11-27 14:03:16 51°21.939 3°7.624 -999 -999 -999 -999
2007-11-27 14:04:16 51°21.998 3°8.009 -999 -999 -999 -999
2007-11-27 14:05:16 51°22.053 3°8.393 -999 -999 -999 -999
2007-11-27 14:06:16 51°22.108 3°8.777 -999 -999 -999 -999
2007-11-27 14:07:15 51°22.163 3°9.156 -999 -999 -999 -999
2007-11-27 14:08:16 51°22.219 3°9.546 -999 -999 -999 -999
2007-11-27 14:09:14 51°22.271 3°9.918 -999 -999 -999 -999
2007-11-27 14:10:16 51°22.32 3°10.317 -999 -999 -999 -999
2007-11-27 14:11:15 51°22.364 3°10.694 -999 -999 -999 -999
2007-11-27 14:12:15 51°22.399 3°11.082 -999 -999 -999 -999
2007-11-27 14:13:16 51°22.437 3°11.481 -999 -999 -999 -999
2007-11-27 14:14:15 51°22.472 3°11.87 -999 -999 -999 -999
2007-11-27 14:15:16 51°22.503 3°12.243 -999 -999 -999 -999
2007-11-27 14:16:15 51°22.531 3°12.586 -999 -999 -999 -999
2007-11-27 14:17:16 51°22.553 3°12.885 -999 -999 -999 -999
2007-11-27 14:18:15 51°22.582 3°13.085 -999 -999 -999 -999
2007-11-27 14:19:16 51°22.615 3°13.22 -999 -999 -999 -999
2007-11-27 14:20:19 51°22.614 3°13.276 -999 -999 -999 -999
2007-11-27 14:21:17 51°22.615 3°13.329 -999 -999 -999 -999
2007-11-27 14:22:16 51°22.618 3°13.385 -999 -999 -999 -999
2007-11-27 14:23:16 51°22.643 3°13.465 -999 -999 -999 -999
2007-11-27 14:24:16 51°22.693 3°13.475 -999 -999 -999 -999
2007-11-27 14:25:16 51°22.68 3°13.419 -999 -999 -999 -999
2007-11-27 14:26:16 51°22.641 3°13.279 -999 -999 -999 -999
2007-11-27 14:27:16 51°22.596 3°13.027 -999 -999 -999 -999
2007-11-27 14:28:16 51°22.551 3°12.764 -999 -999 -999 -999
2007-11-27 14:29:15 51°22.505 3°12.505 -999 -999 -999 -999
2007-11-27 14:30:16 51°22.46 3°12.233 -999 -999 -999 -999
2007-11-27 14:31:16 51°22.416 3°11.965 -999 -999 -999 -999
2007-11-27 14:32:15 51°22.372 3°11.703 -999 -999 -999 -999
2007-11-27 14:33:16 51°22.339 3°11.425 -999 -999 -999 -999
2007-11-27 14:34:16 51°22.309 3°11.249 -999 -999 -999 -999
2007-11-27 14:35:16 51°22.287 3°11.226 -999 -999 -999 -999
2007-11-27 14:36:16 51°22.285 3°11.235 -999 -999 -999 -999
2007-11-27 14:37:16 51°22.287 3°11.259 -999 -999 -999 -999
2007-11-27 14:38:15 51°22.289 3°11.288 -999 -999 -999 -999
2007-11-27 14:39:16 51°22.247 3°11.192 -999 -999 -999 -999
2007-11-27 14:40:16 51°22.2 3°10.95 -999 -999 -999 -999
2007-11-27 14:41:16 51°22.144 3°10.693 -999 -999 -999 -999
2007-11-27 14:42:16 51°22.08 3°10.443 -999 -999 -999 -999
2007-11-27 14:43:16 51°22.011 3°10.197 -999 -999 -999 -999
2007-11-27 14:44:16 51°21.944 3°9.949 -999 -999 -999 -999
2007-11-27 14:45:16 51°21.878 3°9.698 -999 -999 -999 -999
2007-11-27 14:46:16 51°21.803 3°9.448 -999 -999 -999 -999
2007-11-27 14:47:16 51°21.72 3°9.197 -999 -999 -999 -999
2007-11-27 14:48:16 51°21.639 3°8.943 -999 -999 -999 -999
2007-11-27 14:49:16 51°21.559 3°8.693 -999 -999 -999 -999
2007-11-27 14:50:16 51°21.474 3°8.45 -999 -999 -999 -999
2007-11-27 14:51:16 51°21.38 3°8.215 -999 -999 -999 -999
2007-11-27 14:52:16 51°21.277 3°7.988 -999 -999 -999 -999
2007-11-27 14:53:16 51°21.166 3°7.77 -999 -999 -999 -999
2007-11-27 14:54:16 51°21.055 3°7.556 -999 -999 -999 -999
2007-11-27 14:55:16 51°20.947 3°7.337 -999 -999 -999 -999
2007-11-27 14:56:16 51°20.834 3°7.123 -999 -999 -999 -999
2007-11-27 14:57:16 51°20.722 3°6.904 -999 -999 -999 -999
2007-11-27 14:58:16 51°20.611 3°6.687 -999 -999 -999 -999
2007-11-27 14:59:16 51°20.499 3°6.472 -999 -999 -999 -999
2007-11-27 15:00:16 51°20.389 3°6.253 -999 -999 -999 -999
2007-11-27 15:01:16 51°20.279 3°6.031 -999 -999 -999 -999
2007-11-27 15:02:16 51°20.179 3°5.797 -999 -999 -999 -999
2007-11-27 15:03:16 51°20.08 3°5.561 -999 -999 -999 -999
2007-11-27 15:04:16 51°19.98 3°5.329 -999 -999 -999 -999
2007-11-27 15:05:16 51°19.877 3°5.101 -999 -999 -999 -999
2007-11-27 15:06:16 51°19.777 3°4.86 -999 -999 -999 -999
2007-11-27 15:07:16 51°19.673 3°4.619 -999 -999 -999 -999
2007-11-27 15:08:16 51°19.571 3°4.376 -999 -999 -999 -999
2007-11-27 15:09:16 51°19.468 3°4.137 -999 -999 -999 -999
2007-11-27 15:10:16 51°19.369 3°3.89 -999 -999 -999 -999
2007-11-27 15:11:16 51°19.269 3°3.646 -999 -999 -999 -999
2007-11-27 15:12:16 51°19.168 3°3.402 -999 -999 -999 -999
2007-11-27 15:13:16 51°19.065 3°3.157 -999 -999 -999 -999
2007-11-27 15:14:16 51°18.966 3°2.907 -999 -999 -999 -999
2007-11-27 15:15:16 51°18.862 3°2.661 -999 -999 -999 -999
2007-11-27 15:16:16 51°18.759 3°2.416 -999 -999 -999 -999
2007-11-27 15:17:16 51°18.656 3°2.17 -999 -999 -999 -999
2007-11-27 15:18:16 51°18.556 3°1.92 -999 -999 -999 -999
2007-11-27 15:19:16 51°18.457 3°1.672 -999 -999 -999 -999
2007-11-27 15:20:16 51°18.356 3°1.428 -999 -999 -999 -999
2007-11-27 15:21:16 51°18.255 3°1.184 -999 -999 -999 -999
2007-11-27 15:22:16 51°18.155 3°0.936 -999 -999 -999 -999
2007-11-27 15:23:16 51°18.053 3°0.69 -999 -999 -999 -999
2007-11-27 15:24:16 51°17.951 3°0.449 -999 -999 -999 -999
2007-11-27 15:25:16 51°17.85 3°0.208 -999 -999 -999 -999
2007-11-27 15:26:16 51°17.751 2°59.963 -999 -999 -999 -999
2007-11-27 15:27:16 51°17.652 2°59.717 -999 -999 -999 -999
2007-11-27 15:28:16 51°17.567 2°59.457 -999 -999 -999 -999
2007-11-27 15:29:16 51°17.483 2°59.197 -999 -999 -999 -999
2007-11-27 15:30:16 51°17.4 2°58.938 -999 -999 -999 -999
2007-11-27 15:31:16 51°17.324 2°58.673 -999 -999 -999 -999
2007-11-27 15:32:16 51°17.25 2°58.406 -999 -999 -999 -999
2007-11-27 15:33:16 51°17.185 2°58.13 -999 -999 -999 -999
2007-11-27 15:34:16 51°17.116 2°57.855 -999 -999 -999 -999
2007-11-27 15:35:16 51°17.047 2°57.58 -999 -999 -999 -999
2007-11-27 15:36:16 51°16.976 2°57.306 -999 -999 -999 -999
2007-11-27 15:37:16 51°16.907 2°57.031 -999 -999 -999 -999
2007-11-27 15:38:16 51°16.838 2°56.758 -999 -999 -999 -999
2007-11-27 15:39:16 51°16.77 2°56.486 -999 -999 -999 -999
2007-11-27 15:40:16 51°16.704 2°56.212 -999 -999 -999 -999
2007-11-27 15:41:16 51°16.636 2°55.94 -999 -999 -999 -999
2007-11-27 15:42:16 51°16.57 2°55.668 -999 -999 -999 -999
2007-11-27 15:43:16 51°16.503 2°55.398 -999 -999 -999 -999
2007-11-27 15:44:16 51°16.435 2°55.127 -999 -999 -999 -999
2007-11-27 15:45:16 51°16.369 2°54.852 -999 -999 -999 -999
2007-11-27 15:46:16 51°16.299 2°54.58 -999 -999 -999 -999
2007-11-27 15:47:16 51°16.251 2°54.39 -999 -999 -999 -999
2007-11-27 15:48:16 51°16.232 2°54.32 -999 -999 -999 -999
2007-11-27 15:49:16 51°16.232 2°54.292 -999 -999 -999 -999
2007-11-27 15:50:16 51°16.237 2°54.279 -999 -999 -999 -999
2007-11-27 15:51:16 51°16.245 2°54.276 -999 -999 -999 -999
2007-11-27 15:52:16 51°16.257 2°54.279 -999 -999 -999 -999
2007-11-27 15:53:16 51°16.239 2°54.221 -999 -999 -999 -999
2007-11-27 15:54:16 51°16.158 2°54.186 -999 -999 -999 -999
2007-11-27 15:55:16 51°16.043 2°54.151 -999 -999 -999 -999
2007-11-27 15:56:16 51°15.879 2°54.157 -999 -999 -999 -999
2007-11-27 15:57:16 51°15.684 2°54.219 -999 -999 -999 -999
2007-11-27 15:58:16 51°15.488 2°54.282 -999 -999 -999 -999
2007-11-27 15:59:16 51°15.296 2°54.368 -999 -999 -999 -999
2007-11-27 16:00:16 51°15.101 2°54.457 -999 -999 -999 -999
2007-11-27 16:01:16 51°14.91 2°54.545 -999 -999 -999 -999
2007-11-27 16:02:16 51°14.722 2°54.654 -999 -999 -999 -999
2007-11-27 16:03:16 51°14.543 2°54.806 -999 -999 -999 -999
2007-11-27 16:04:16 51°14.39 2°55.025 -999 -999 -999 -999
2007-11-27 16:05:16 51°14.253 2°55.26 -999 -999 -999 -999
2007-11-27 16:06:16 51°14.122 2°55.408 -999 -999 -999 -999
2007-11-27 16:07:16 51°14.024 2°55.479 -999 -999 -999 -999
2007-11-27 16:08:16 51°13.936 2°55.544 -999 -999 -999 -999
2007-11-27 16:09:16 51°13.838 2°55.62 -999 -999 -999 -999
2007-11-27 16:10:17 51°13.746 2°55.735 -999 -999 -999 -999
2007-11-27 16:11:17 51°13.677 2°55.862 -999 -999 -999 -999
2007-11-27 16:12:16 51°13.634 2°55.962 -999 -999 -999 -999
2007-11-27 16:13:18 51°13.608 2°56.052 -999 -999 -999 -999
2007-11-27 16:14:17 51°13.601 2°56.088 -999 -999 -999 -999
2007-11-27 16:15:16 51°13.596 2°56.096 -999 -999 -999 -999